This demonstration page uses our WeatherBlox Daily Observations layout. Learn more.

Left ArrowRight Arrow

39.12711, -84.51439

Hourly Observations for November 20, 2020

Temp ( °F °C ) Dew Point ( °F °C ) Humidity (%) Winds ( mph kmh ) Pressure ( in mb ) Visibility ( mi km ) Precip ( " mm )
12:53 am 00:53 Clear 51 10.6 29 -1.7 43 43 SSW 9 15 30.29 1026 10 16 0.00 0.00
1:53 am 01:53 Clear 49 9.4 29 -1.7 46 46 SSW 8 13 30.29 1026 10 16 0.00 0.00
2:53 am 02:53 Clear 48 8.9 29 -1.7 48 48 SW 7 11 30.31 1026 10 16 0.00 0.00
3:53 am 03:53 Clear 45 7.2 28 -2.2 52 52 SSW 9 15 30.32 1027 10 16 0.00 0.00
4:53 am 04:53 Clear 46 7.8 29 -1.7 51 51 SSW 9 15 30.34 1027 10 16 0.00 0.00
5:53 am 05:53 Clear 49 9.4 28 -2.2 44 44 SSW 13 20 30.34 1028 10 16 0.00 0.00
6:53 am 06:53 Clear 49 9.4 27 -2.8 43 43 SSW 13 20 30.35 1028 10 16 0.00 0.00
7:53 am 07:53 Sunny 50 10 28 -2.2 43 43 SSW 12 19 30.36 1028 10 16 0.00 0.00
8:53 am 08:53 Sunny 53 11.7 30 -1.1 41 41 SSW 14 22 30.37 1029 10 16 0.00 0.00
9:53 am 09:53 Sunny 57 13.9 33 0.6 41 41 SSW 15 24 30.38 1029 10 16 0.00 0.00
10:53 am 10:53 Cloudy 59 15 37 2.8 44 44 SW 9 15 30.38 1029 10 16 0.00 0.00
11:53 am 11:53 Cloudy 61 16.1 40 4.4 46 46 SW 9 15 30.37 1029 10 16 0.00 0.00
12:53 pm 12:53 Cloudy 61 16.1 42 5.6 50 50 SSW 10 17 30.35 1028 10 16 0.00 0.00
1:53 pm 13:53 Cloudy 63 17.2 44 6.7 50 50 SSW 14 22 30.34 1027 10 16 0.00 0.00
2:53 pm 14:53 Cloudy 63 17.2 45 7.2 52 52 SSW 7 11 30.33 1027 10 16 0.00 0.00
3:53 pm 15:53 Cloudy 63 17.2 47 8.3 56 56 SW 10 17 30.33 1027 10 16 0.00 0.00
4:53 pm 16:53 Cloudy 62 16.7 46 7.8 56 56 SSW 9 15 30.35 1028 10 16 0.00 0.00
5:53 pm 17:53 Cloudy 59 15 47 8.3 64 64 SW 5 7 30.36 1028 10 16 0.00 0.00
6:53 pm 18:53 Cloudy 59 15 47 8.3 64 64 Calm 30.37 1029 10 16 0.00 0.00
7:53 pm 19:53 Cloudy 58 14.4 48 8.9 70 70 Calm 30.37 1028 10 16 0.00 0.00
8:53 pm 20:53 Cloudy 57 13.9 49 9.4 74 74 Calm 30.38 1029 10 16 0.00 0.00
9:53 pm 21:53 Cloudy 58 14.4 51 10.6 78 78 SW 6 9 30.40 1029 10 16 0.00 0.00
10:53 pm 22:53 Cloudy with Light Rain 57 13.9 53 11.7 87 87 NW 5 7 30.40 1030 5 8 0.00 0.00
11:53 pm 23:53 Cloudy 55 12.8 54 12.2 96 96 SSW 3 6 30.39 1029 8 13 0.00 0.00

Powered by AerisWeather